Home   Weather   Livermore   Past weeks
Flag for USA

Past Weather in Livermore, California, USA — Yesterday and Last 2 Weeks

Now
47 °F

Clear.


Feels Like: 46 °F
Forecast: 80 / 46 °F
Wind: 3 mph from East

Location: Livermore Municipal Airport

Current Time: Oct 15, 2019 at 4:34:38 am

Latest Report: Oct 15, 2019 at 3:53 am


Visibility: 10 mi

Pressure: 30.02 "Hg

Humidity: 69%

Dew Point: 37 °F

Location of LivermoreLocation

Past Weather in Livermore — Graph

°F

Livermore Temperature Yesterday

Maximum temperature yesterday: 80 °F (at 3:53 pm)
Minimum temperature yesterday: 44 °F (at 5:53 am)
Average temperature yesterday: 59 °F

High & Low Weather Summary for the Past Weeks

 TemperatureHumidityPressure
High90 °F (Oct 8, 2:53 pm)92% (Oct 1, 4:53 am)30.14 "Hg (Oct 1, 4:53 am)
Low42 °F (Oct 1, 4:53 am)11% (Oct 9, 3:53 pm)29.79 "Hg (Oct 8, 5:53 pm)
Average61 °F44%29.96 "Hg
* Reported Sep 30 2:31 am — Oct 15 2:53 am, Livermore. Weather by CustomWeather, © 2019

Note: Actual official high and low records may vary slightly from our data, if they occured in-between our weather recording intervals... More about our weather records

Advertising

Livermore Weather History for the Previous 24 Hours

Scroll right to see more
 ConditionsComfort  
Time TempWeatherWind HumidityBarometerVisibility
2:53 am
Tue, Oct 15
47 °FClear.3 mph69%30.02 "Hg10 mi
1:53 am48 °FClear.3 mph68%30.02 "Hg10 mi
12:53 am50 °FClear.No wind66%30.01 "Hg10 mi
11:53 pm
Mon, Oct 14
53 °FClear.No wind61%30.01 "Hg10 mi
10:53 pm55 °FClear.3 mph62%30.01 "Hg10 mi
9:53 pm58 °FClear.No wind60%30.00 "Hg10 mi
8:53 pm61 °FClear.No wind50%29.98 "Hg10 mi
7:53 pm63 °FClear.6 mph48%29.96 "Hg10 mi
6:53 pm67 °FClear.7 mph44%29.93 "Hg10 mi
5:53 pm72 °FSunny.9 mph37%29.92 "Hg10 mi
4:53 pm77 °FSunny.10 mph30%29.92 "Hg10 mi
3:53 pm80 °FSunny.5 mph17%29.91 "Hg10 mi
2:53 pm79 °FSunny.6 mph14%29.91 "Hg10 mi
1:53 pm76 °FSunny.3 mph20%29.92 "Hg10 mi
12:53 pm72 °FSunny.No wind22%29.94 "Hg10 mi
11:53 am68 °FSunny.No wind28%29.96 "Hg10 mi
10:53 am62 °FSunny.3 mph44%29.96 "Hg10 mi
9:53 am57 °FSunny.No wind41%29.97 "Hg10 mi
8:53 am51 °FSunny.No wind52%29.96 "Hg10 mi
7:53 am44 °FSunny.3 mph65%29.95 "Hg10 mi
6:53 am45 °FClear.3 mph63%29.93 "Hg10 mi
5:53 am44 °FClear.No wind65%29.91 "Hg10 mi
4:53 am45 °FClear.5 mph58%29.89 "Hg10 mi
Weather by CustomWeather, © 2019

See weather overview